Ашагы-Агджакенд / Шаумяновск

Азербайджан     40°25′14″N   46°34′14″E
темп.,
°C
ветер,
м/с
пор.,
м/с
влажн.,
%
обл.,
%
осадки,
мм/ч
давл.,
гПа
погр.,
м
22 октября, пт
пт2201:00+5зюз11830 0.0 103011
04:00+5юз11800 0.0 102810
07:00+5зюз11750 0.0 102710
10:00+10всв21600 0.0 1026283
13:00+13св32520 0.0 1024562
16:00+14св21490 0.0 1022503
19:00+10ююв11630 0.0 102311
22:00+9ю11670 0.0 102310
23 октября, сб
сб2301:00+8юз11690 0.0 102310
04:00+8зюз22650 0.0 102210
07:00+8зюз22570 0.0 102110
10:00+12всв21470 0.0 1021265
13:00+15св31450 0.0 1019592
16:00+15св21430 0.0 1018585
19:00+11ююв11560 0.0 101910
22:00+10юз22590 0.0 101911
24 октября, вс
вс2401:00+10зюз22550 0.0 101912
04:00+10зюз33420 0.0 101818
07:00+9юз22330 0.0 101811
10:00+14в21330 0.0 1018290
13:00+16св31320 0.0 1017778
16:00+16св21295 0.0 1017866
19:00+12ююз224354 0.0 101711
22:00+11юз22494 0.0 101710
25 октября, пн
пн2501:00+10юз32484 0.0 101715
04:00+9зюз334499 0.0 101620
07:00+9зюз43391 0.0 101731
10:00+13ссз22315 0.0 1016442
13:00+13ссз4342100 0.0 1017563
16:00+12сз3445100 0.0 1018596
19:00+8ссз4470100 0.0 1021360
22:00+7ссз4473100 0.5 1024540
26 октября, вт
вт2601:00+6сз3473100 0.6 1024633
04:00+5вюв2389100 2.6 1026463
07:00+5юв1285100 0.4 1027256
10:00+6всв227691 0.7 1029532
13:00+7св225997 0.3 10281162
16:00+8с335088 0.3 10271303
19:00+5в117211 0.0 102956
22:00+4ююв238314 0.0 103069